Home   Weather   Da Nang   Past weeks

Flag for Vietnam Past Weather in Da Nang, Vietnam — Yesterday and Last 2 Weeks

Now
79 °F

Fog.


Feels Like: 82 °F
Forecast: 79 / 88 °F
Wind: 1 mph from North

Location: Da Nang Airport

Current Time: May 1, 2017 at 4:05:08 am

Latest Report: May 1, 2017 at 3:30 am


Visibility: 3 mi

Pressure: 29.83 "Hg

Humidity: 89%

Dew Point: 75 °F

Location of Da NangLocation

Past Weather in Da Nang — Graph

°F

Da Nang Temperature Yesterday

Maximum temperature yesterday: 91 °F (at 12:30 pm)
Minimum temperature yesterday: 75 °F (at 5:00 am)
Average temperature yesterday: 83 °F

High & Low Weather Summary for the Past Weeks

 TemperatureHumidityPressure
High100 °F (Apr 21, 11:00 am)94% (Apr 16, 2:00 am)29.98 "Hg (Apr 16, 2:00 am)
Low72 °F (Apr 17, 5:30 am)45% (Apr 21, 11:00 am)29.68 "Hg (Apr 21, 4:00 pm)
Average82 °F79%29.84 "Hg
* Reported Apr 16 2:00 am — May 1 2:30 am, Da Nang, Weather by CustomWeather, © 2017

Note: Actual official high and low records may vary slightly from our data, if they occured in-between our weather recording intervals... More about our weather records

Advertising

Da Nang Weather History for the Previous 24 Hours

Scroll right to see more
 ConditionsComfort  
Time TempWeatherWind HumidityBarometerVisibility
2:30 am
Mon, May 1
79 °FFog.3 mph94%29.83 "Hg3 mi
2:00 am79 °FFog.5 mph94%29.83 "Hg3 mi
1:30 am79 °FPassing clouds.5 mph94%29.83 "Hg4 mi
1:00 am81 °FPassing clouds.2 mph89%29.83 "Hg4 mi
12:30 am81 °FPassing clouds.5 mph89%29.86 "Hg4 mi
12:00 am81 °FPassing clouds.3 mph89%29.86 "Hg4 mi
11:30 pm
Sun, Apr 30
81 °FPassing clouds.5 mph89%29.86 "Hg4 mi
11:00 pm82 °FPassing clouds.3 mph84%29.89 "Hg4 mi
10:30 pm82 °FPassing clouds.6 mph84%29.89 "Hg4 mi
10:00 pm82 °FPassing clouds.3 mph84%29.89 "Hg4 mi
9:30 pm82 °FPassing clouds.6 mph84%29.89 "Hg4 mi
9:00 pm82 °FPassing clouds.5 mph84%29.89 "Hg4 mi
8:30 pm82 °FPassing clouds.6 mph84%29.89 "Hg4 mi
8:00 pm82 °FPassing clouds.3 mph84%29.89 "Hg4 mi
7:30 pm82 °FPassing clouds.1 mph84%29.86 "Hg4 mi
7:00 pm82 °FPassing clouds.5 mph84%29.86 "Hg4 mi
6:30 pm82 °FPassing clouds.6 mph84%29.86 "Hg4 mi
6:00 pm82 °FScattered clouds.7 mph84%29.83 "Hg5 mi
5:30 pm82 °FPartly sunny.8 mph84%29.86 "Hg5 mi
5:00 pm82 °FScattered clouds.7 mph79%29.83 "HgN/A
4:30 pm82 °FScattered clouds.7 mph84%29.80 "HgN/A
4:00 pm84 °FPassing clouds.9 mph79%29.80 "HgN/A
3:30 pm86 °FPassing clouds.9 mph75%29.83 "HgN/A
3:00 pm86 °FPassing clouds.9 mph75%29.83 "HgN/A
2:30 pm88 °FPassing clouds.10 mph66%29.83 "HgN/A
2:00 pm88 °FPassing clouds.13 mph66%29.83 "HgN/A
1:30 pm88 °FPassing clouds.10 mph66%29.83 "HgN/A
1:00 pm90 °FPassing clouds.10 mph63%29.86 "HgN/A
12:30 pm91 °FPassing clouds.9 mph59%29.86 "HgN/A
12:00 pm90 °FPassing clouds.8 mph63%29.86 "HgN/A
11:30 am90 °FPassing clouds.9 mph63%29.89 "HgN/A
10:30 am90 °FPassing clouds.8 mph63%29.89 "HgN/A
10:00 am90 °FPassing clouds.7 mph63%29.89 "HgN/A
9:30 am88 °FScattered clouds.6 mph66%29.92 "Hg5 mi
9:00 am86 °FScattered clouds.5 mph70%29.92 "Hg5 mi
8:30 am84 °FScattered clouds.6 mph74%29.92 "Hg5 mi
8:00 am82 °FScattered clouds.6 mph79%29.92 "Hg5 mi
7:30 am82 °FScattered clouds.6 mph79%29.89 "Hg4 mi
7:00 am81 °FScattered clouds.5 mph84%29.89 "Hg4 mi
6:30 am77 °FScattered clouds.1 mph94%29.89 "Hg4 mi
6:00 am75 °FFog.No wind94%29.89 "Hg3 mi
5:30 am75 °FFog.2 mph94%29.89 "Hg3 mi
5:00 am75 °FPassing clouds.1 mph94%29.86 "Hg4 mi
4:30 am77 °FPassing clouds.1 mph89%29.86 "Hg5 mi
4:00 am77 °FPassing clouds.1 mph89%29.86 "Hg5 mi
Weather by CustomWeather, © 2017

See weather overviewHow to use our weather pages